Terug naar catalogus

COSMOS 2363

GLONASS

ActiefNavigatieMEO
NORAD 25594·PAYLOAD·🇷🇺 Russia

Gelanceerd Dec 30, 1998 vanaf Baikonur Cosmodrome

Loading…

Volgende Passages (komende 24 uur)

TLE

VersSource: Space-Track

Epoch: Sep 14, 2026, 02:48 UTC

1 25594U 98077B   26257.11708360 -.00000030  00000-0  00000-0 0  9998
2 25594  64.3896  56.9585 0027424  46.6663 130.3008  2.13103645215571

Volg COSMOS 2363 in realtime met AllMySat

Download on the App Store